Flag for Kuwait Weather past 2 weeks in Kuwait City, Kuwait

Now
99 °F

Sunny.


Feels Like: 95 °F
Forecast: 92 / 107 °F
Wind: 8 mph from Northwest

Location: Kuwait International Airport

Current Time: Jul 29, 2015 at 6:50:35 AM

Latest Report: Jul 29, 2015 at 6:00 AM


Visibility: 10 mi

Pressure: 29.47 "Hg

Humidity: 17%

Dew point: 46 °F

Historic Weather in Kuwait City — Graph

°F

Kuwait City temperature yesterday

Maximum temperature yesterday: 118 °F (at 2:00 PM)
Minimum temperature yesterday: 95 °F (at 12:00 AM)
Average temperature yesterday: 106 °F

Past Weeks' High & Low Weather Summary

 TemperatureHumidityPressure
High122 °F (Jul 16, 1:00 PM)70% (Jul 15, 3:00 AM)29.56 "Hg (Jul 15, 3:00 AM)
Low84 °F (Jul 25, 6:00 AM)5% (Jul 16, 2:00 PM)29.33 "Hg (Jul 19, 6:00 PM)
Average104 °F17%29.45 "Hg
* Reported Jul 14 5:00 AM — Jul 29 5:00 AM, Kuwait City, Weather by CustomWeather, © 2015

Note: Actual official high and low records may vary slightly from our data, if they occured in-between our weather recording intervals... More about our weather records

Advertising

Kuwait City weather history for previous 24 hours

 ConditionsComfort  
Time TempWeatherWind HumidityBarometerVisibility
5:00 AM
Wed, Jul 29
99 °FClear.13 mph17%29.47 "Hg10 mi
4:00 AM99 °FClear.12 mph17%29.45 "Hg10 mi
3:00 AM100 °FClear.12 mph16%29.45 "Hg10 mi
2:00 AM100 °FClear.9 mph15%29.45 "Hg10 mi
1:00 AM102 °FClear.9 mph13%29.47 "Hg10 mi
12:00 AM104 °FClear.9 mph13%29.47 "Hg10 mi
11:00 PM
Tue, Jul 28
97 °FClear.2 mph16%29.47 "Hg10 mi
10:00 PM97 °FClear.3 mph16%29.47 "Hg10 mi
9:00 PM100 °FClear.3 mph16%29.47 "Hg10 mi
8:00 PM104 °FClear.No wind15%29.45 "Hg10 mi
7:00 PM106 °FClear.6 mph12%29.42 "Hg10 mi
6:00 PM111 °FSunny.8 mph14%29.42 "Hg10 mi
5:00 PM111 °FSunny.9 mph15%29.42 "Hg10 mi
4:30 PM113 °FSunny.8 mph14%29.42 "Hg10 mi
3:59 PM115 °FSunny.5 mph13%29.42 "Hg10 mi
3:00 PM115 °FSunny.6 mph12%29.42 "Hg10 mi
2:00 PM118 °FSunny.7 mph9%29.45 "Hg10 mi
1:30 PM117 °FSunny.5 mph9%29.45 "Hg10 mi
12:00 PM117 °FSunny.9 mph7%29.47 "Hg10 mi
11:00 AM113 °FSunny.8 mph9%29.47 "Hg10 mi
10:00 AM108 °FSunny.10 mph12%29.50 "Hg10 mi
9:00 AM106 °FSunny.9 mph13%29.47 "Hg10 mi
8:00 AM102 °FSunny.10 mph14%29.47 "Hg10 mi
7:00 AM100 °FSunny.9 mph15%29.47 "Hg10 mi
6:00 AM97 °FSunny.13 mph16%29.45 "Hg10 mi
Weather by CustomWeather, © 2015

See weather overviewHow to use our weather pages